{"data":{"norad_id":61558,"intl_designator":"2024-185G","name":"QIANFAN-25","alt_names":[],"object_type":"PAYLOAD","status":"ACTIVE","operator":null,"country":"PRC","launch_date":"2024-10-15","launch_site_code":"TAISC","launch_vehicle":null,"mission":null,"orbit_class":"UNKNOWN","rcs_meters":null,"size_class":null,"mass_kg":null,"dimensions":null,"purposes":[],"wikipedia_slug":null,"has_3d_model":false,"image_url":null,"decayed_at":null,"tle_current":{"epoch":"2026-05-25T03:02:19.473792Z","epoch_age_seconds":64449,"freshness":"FRESH","line1":"1 61558U 24185G   26145.12661428  .00000415  00000+0  24477-3 0  9999","line2":"2 61558  88.9834  59.6855 0010781 167.5393 192.6058 14.06056100 92461","mean_motion":14.060561,"eccentricity":0.0010781,"inclination_deg":88.9834,"raan_deg":59.6855,"arg_perigee_deg":167.5393,"mean_anomaly_deg":192.6058,"bstar":0.00024477,"rev_number":9246,"period_min":102.41412131422,"perigee_km":865.08189301861,"apogee_km":880.71657734891,"semimajor_km":7251.0362351838,"source":"CELESTRAK","updated_at":"2026-05-25T13:38:02.413978Z"}}}